This is the latest recevied weather packets stored in our database for station/object K5NCO. If no packets are shown the sender has not sent any weather packets the latest 10 day(s).
| Time | Temp. | Humidity | Pressure | Rain* | Wind** | Luminosity | Snow |
|---|---|---|---|---|---|---|---|
| 1777925292 | 26.67° C | 62% | 1012.9 hPa | 0 mm | - | 588 W/m² | - |
| 1777924988 | 26.11° C | 62% | 1013 hPa | 0 mm | - | 502 W/m² | - |
| 1777924684 | 26.67° C | 63% | 1013.1 hPa | 0 mm | - | 606 W/m² | - |
| 1777924380 | 26.67° C | 61% | 1013.1 hPa | 0 mm | - | 646 W/m² | - |
| 1777924077 | 26.67° C | 61% | 1013.4 hPa | 0 mm | - | 750 W/m² | - |
| 1777923773 | 26.11° C | 62% | 1013.4 hPa | 0 mm | - | 783 W/m² | - |
| 1777923469 | 26.11° C | 62% | 1013.7 hPa | 0 mm | - | 586 W/m² | - |
| 1777923167 | 26.11° C | 63% | 1013.6 hPa | 0 mm | - | 823 W/m² | - |
| 1777922865 | 25.56° C | 63% | 1013.6 hPa | 0 mm | - | 371 W/m² | - |
| 1777922563 | 25.56° C | 64% | 1013.9 hPa | 0 mm | - | 481 W/m² | - |
| 1777922262 | 26.11° C | 62% | 1013.8 hPa | 0 mm | - | 578 W/m² | - |
| 1777921958 | 25.56° C | 64% | 1014 hPa | 0 mm | - | 692 W/m² | - |
| 1777921653 | 25.56° C | 63% | 1014.1 hPa | 0 mm | - | 489 W/m² | - |
| 1777921350 | 25.56° C | 63% | 1014.1 hPa | 0 mm | - | 478 W/m² | - |
| 1777921047 | 25.56° C | 64% | 1014 hPa | 0 mm | - | 737 W/m² | - |
| 1777920744 | 25.56° C | 64% | 1014.2 hPa | 0 mm | - | 538 W/m² | - |
| 1777920440 | 25.56° C | 64% | 1014.2 hPa | 0 mm | - | 870 W/m² | - |
| 1777920136 | 25° C | 65% | 1014.2 hPa | 0 mm | - | 803 W/m² | - |
| 1777919832 | 25° C | 65% | 1014.4 hPa | 0 mm | - | 787 W/m² | - |
| 1777919529 | 25° C | 67% | 1014.4 hPa | 0 mm | - | 763 W/m² | - |
| 1777919227 | 25° C | 66% | 1014.6 hPa | 0 mm | - | 712 W/m² | - |
| 1777918924 | 24.44° C | 67% | 1014.7 hPa | 0 mm | - | 527 W/m² | - |
| 1777918621 | 24.44° C | 67% | 1014.8 hPa | 0 mm | - | 512 W/m² | - |
| 1777918319 | 24.44° C | 68% | 1014.7 hPa | 0 mm | - | 322 W/m² | - |
| 1777918018 | 24.44° C | 68% | 1014.9 hPa | 0 mm | - | 394 W/m² | - |
* Rain latest hour (hover to see other rain measurements)
** Current wind speed in m/s (hover to see current wind gust speed)